Location: Mentone
(34.5413°N, 85.5351°W)
Time: 20:18:36
(UTC-05:00)

Vanguard 2 Rocket - Visible Passes

Search period start: 20 October 2017 00:00
Search period end: 30 October 2017 00:00
Orbit: 555 x 3327 km, 32.9° (Epoch: 19 October)

Date Brightness Start Highest point End Pass type
(mag) Time Alt. Az. Time Alt. Az. Time Alt. Az.
20 Oct 10.4 19:25:46 10° W 19:37:25 32° SSW 19:53:10 10° SSE visible
21 Oct 10.2 18:25:31 10° W 18:36:23 39° SSW 18:52:37 10° SSE visible
21 Oct 11.0 20:45:04 10° WSW 20:53:03 15° SW 21:02:07 10° S visible
22 Oct 10.8 19:42:13 10° WSW 19:51:56 21° SW 20:04:14 10° S visible
23 Oct 10.5 18:41:12 10° W 18:50:58 27° SSW 19:04:41 10° SSE visible
24 Oct 11.1 20:01:35 10° SW 20:06:37 12° SW 20:12:16 10° SSW visible
25 Oct 10.9 18:58:08 10° WSW 19:05:40 17° SSW 19:15:13 10° S visible
28 Oct 11.0 18:15:04 10° SW 18:19:49 13° SSW 18:25:30 10° S visible
